Schneifelwetter: Wetterstation Hallschlag, 537 m . NN
Wetterdaten: Sonntag, 01.03.2009
Datum Zeit Temp. A. Temp. 2 Feuchte A. Luftdruck Regen Wind Richtung Richtung Sonnenschein Helligkeit T Regen Taupunkt Windchill
01.03.2009 00:10 2,7 C 2,4 C 96 % 1010 hPa 0,0 l/m 0,0 km/h (0 Bft) N 5 0 min 0 lux 0,00 min 2,1 C 2,7 C
01.03.2009 00:25 2,5 C 1,7 C 96 % 1010 hPa 0,0 l/m 0,0 km/h (0 Bft) N 5 0 min 0 lux 0,00 min 1,9 C 2,5 C
01.03.2009 00:40 1,9 C 1,0 C 95 % 1010 hPa 0,0 l/m 0,0 km/h (0 Bft) N 5 0 min 0 lux 0,00 min 1,2 C 1,9 C
01.03.2009 00:55 1,4 C 0,5 C 95 % 1010 hPa 0,0 l/m 0,0 km/h (0 Bft) N 5 0 min 0 lux 0,00 min 0,7 C 1,4 C
01.03.2009 01:10 1,1 C 0,0 C 96 % 1010 hPa 0,0 l/m 0,0 km/h (0 Bft) N 5 0 min 0 lux 0,00 min 0,5 C 1,1 C
01.03.2009 01:25 1,0 C 0,2 C 96 % 1010 hPa 0,0 l/m 0,0 km/h (0 Bft) N 5 0 min 0 lux 0,00 min 0,4 C 1,0 C
01.03.2009 01:40 1,2 C 0,5 C 96 % 1009 hPa 0,0 l/m 0,0 km/h (0 Bft) N 5 0 min 0 lux 0,00 min 0,6 C 1,2 C
01.03.2009 01:55 1,6 C 1,1 C 97 % 1009 hPa 0,0 l/m 0,0 km/h (0 Bft) N 5 0 min 0 lux 0,00 min 1,2 C 1,6 C
01.03.2009 02:10 2,4 C 1,9 C 98 % 1009 hPa 0,0 l/m 0,0 km/h (0 Bft) N 5 0 min 0 lux 0,00 min 2,1 C 2,4 C
01.03.2009 02:25 3,0 C 2,7 C 98 % 1009 hPa 0,0 l/m 5,4 km/h (1 Bft) NO45 50 0 min 0 lux 0,00 min 2,7 C 3,0 C
01.03.2009 02:40 3,5 C 3,1 C 99 % 1009 hPa 0,0 l/m 7,0 km/h (2 Bft) SO22.5 145 0 min 0 lux 0,00 min 3,4 C 2,9 C
01.03.2009 02:55 3,8 C 3,6 C 99 % 1009 hPa 0,0 l/m 8,9 km/h (2 Bft) O45 95 0 min 0 lux 0,00 min 3,7 C 1,6 C
01.03.2009 03:10 4,0 C 3,8 C 99 % 1009 hPa 0,0 l/m 0,0 km/h (0 Bft) O-NO 60 0 min 0 lux 0,00 min 3,9 C 4,0 C
01.03.2009 03:25 4,1 C 3,9 C 99 % 1009 hPa 0,0 l/m 0,0 km/h (0 Bft) NO 40 0 min 0 lux 0,00 min 4,0 C 4,1 C
01.03.2009 03:40 4,1 C 3,9 C 99 % 1009 hPa 0,0 l/m 0,0 km/h (0 Bft) NO 40 0 min 0 lux 0,00 min 4,0 C 4,1 C
01.03.2009 03:54 4,1 C 4,0 C 99 % 1008 hPa 0,0 l/m 0,0 km/h (0 Bft) NO 40 0 min 0 lux 0,00 min 4,0 C 4,1 C
01.03.2009 04:09 4,1 C 4,1 C 99 % 1008 hPa 0,0 l/m 0,0 km/h (0 Bft) O 95 0 min 0 lux 0,00 min 4,0 C 4,1 C
01.03.2009 04:24 4,2 C 4,1 C 99 % 1008 hPa 0,0 l/m 0,0 km/h (0 Bft) O 95 0 min 0 lux 0,00 min 4,1 C 4,2 C
01.03.2009 04:39 4,1 C 4,1 C 99 % 1008 hPa 0,0 l/m 0,0 km/h (0 Bft) O 95 0 min 0 lux 0,00 min 4,0 C 4,1 C
01.03.2009 04:54 4,1 C 4,1 C 99 % 1008 hPa 0,0 l/m 0,0 km/h (0 Bft) O 95 0 min 0 lux 0,00 min 4,0 C 4,1 C
01.03.2009 05:09 4,0 C 4,0 C 99 % 1008 hPa 0,0 l/m 0,0 km/h (0 Bft) O 95 0 min 0 lux 0,00 min 3,9 C 4,0 C
01.03.2009 05:24 3,9 C 3,9 C 99 % 1008 hPa 0,0 l/m 0,0 km/h (0 Bft) O 95 0 min 0 lux 0,00 min 3,8 C 3,9 C
01.03.2009 05:39 3,8 C 3,8 C 99 % 1008 hPa 0,0 l/m 0,0 km/h (0 Bft) O 95 0 min 0 lux 0,00 min 3,7 C 3,8 C
01.03.2009 05:54 3,7 C 3,8 C 99 % 1008 hPa 0,0 l/m 0,0 km/h (0 Bft) O 95 0 min 0 lux 0,00 min 3,6 C 3,7 C
01.03.2009 06:09 3,6 C 3,7 C 99 % 1007 hPa 0,0 l/m 0,0 km/h (0 Bft) O 95 0 min 0 lux 0,00 min 3,5 C 3,6 C
01.03.2009 06:24 3,5 C 3,6 C 99 % 1007 hPa 0,0 l/m 0,0 km/h (0 Bft) O 95 0 min 0 lux 0,00 min 3,4 C 3,5 C
01.03.2009 06:39 3,5 C 3,5 C 99 % 1007 hPa 0,0 l/m 0,0 km/h (0 Bft) O 95 0 min 0 lux 0,00 min 3,4 C 3,5 C
01.03.2009 06:54 3,5 C 3,5 C 99 % 1007 hPa 0,0 l/m 0,0 km/h (0 Bft) O 95 0 min 0 lux 0,00 min 3,4 C 3,5 C
01.03.2009 07:09 3,4 C 3,4 C 99 % 1007 hPa 0,0 l/m 0,0 km/h (0 Bft) O 95 0 min 188 lux 0,00 min 3,3 C 3,4 C
01.03.2009 07:24 3,4 C 3,5 C 99 % 1007 hPa 0,0 l/m 0,0 km/h (0 Bft) O 95 0 min 914 lux 0,00 min 3,3 C 3,4 C
01.03.2009 07:39 3,5 C 3,5 C 99 % 1007 hPa 0,0 l/m 0,0 km/h (0 Bft) O 95 0 min 1,83 klux 0,00 min 3,4 C 3,5 C
01.03.2009 07:54 3,5 C 3,6 C 99 % 1007 hPa 0,0 l/m 7,0 km/h (2 Bft) S-SO22.5 165 0 min 2,49 klux 0,00 min 3,4 C 2,9 C
01.03.2009 08:09 3,7 C 3,7 C 99 % 1007 hPa 0,0 l/m 10,2 km/h (2 Bft) S-SO22.5 155 0 min 3,80 klux 0,00 min 3,6 C 0,5 C
01.03.2009 08:24 3,9 C 3,9 C 99 % 1007 hPa 0,0 l/m 15,5 km/h (3 Bft) S-SO22.5 165 0 min 6,24 klux 0,00 min 3,8 C -2,5 C
01.03.2009 08:40 3,9 C 4,0 C 99 % 1007 hPa 0,0 l/m 15,5 km/h (3 Bft) S-SO22.5 165 0 min 5,21 klux 0,00 min 3,8 C -2,5 C
01.03.2009 08:55 4,0 C 4,2 C 99 % 1007 hPa 0,0 l/m 10,1 km/h (2 Bft) S22.5 170 0 min 6,33 klux 0,00 min 3,9 C 0,9 C
01.03.2009 09:10 4,3 C 4,3 C 99 % 1008 hPa 0,0 l/m 14,5 km/h (3 Bft) S22.5 175 0 min 6,90 klux 0,00 min 4,2 C -1,5 C
01.03.2009 09:31 4,4 C 4,5 C 99 % 1008 hPa 0,0 l/m 21,0 km/h (4 Bft) S-SO22.5 160 0 min 8,64 klux 0,00 min 4,3 C -4,3 C
01.03.2009 09:46 4,8 C 4,9 C 99 % 1007 hPa 0,0 l/m 13,6 km/h (3 Bft) S22.5 170 0 min 13,9 klux 0,00 min 4,7 C -0,4 C
01.03.2009 10:00 5,2 C 5,2 C 99 % 1007 hPa 0,0 l/m 19,1 km/h (3 Bft) S22.5 180 0 min 17,3 klux 0,00 min 5,1 C -2,6 C
01.03.2009 10:15 5,4 C 5,6 C 98 % 1007 hPa 0,0 l/m 18,2 km/h (3 Bft) S-SO22.5 160 0 min 17,4 klux 0,00 min 5,1 C -1,9 C
01.03.2009 10:31 5,5 C 5,9 C 98 % 1007 hPa 0,0 l/m 16,3 km/h (3 Bft) S45 185 0 min 15,5 klux 0,00 min 5,2 C -0,9 C
01.03.2009 10:46 5,7 C 6,3 C 97 % 1007 hPa 0,0 l/m 16,1 km/h (3 Bft) S-SO22.5 160 0 min 18,1 klux 0,00 min 5,3 C -0,6 C
01.03.2009 11:01 6,2 C 6,9 C 96 % 1007 hPa 0,0 l/m 13,0 km/h (3 Bft) S22.5 180 0 min 19,1 klux 0,00 min 5,6 C 1,6 C
01.03.2009 11:16 6,6 C 7,3 C 95 % 1007 hPa 0,0 l/m 16,4 km/h (3 Bft) S-SO22.5 165 15 min 29,2 klux 0,00 min 5,9 C 0,4 C
01.03.2009 11:31 7,0 C 8,1 C 94 % 1007 hPa 0,0 l/m 15,0 km/h (3 Bft) S-SO22.5 160 15 min 32,6 klux 0,00 min 6,1 C 1,5 C
01.03.2009 11:45 7,6 C 9,5 C 92 % 1007 hPa 0,0 l/m 14,2 km/h (3 Bft) S-SO22.5 155 14 min 63,0 klux 0,00 min 6,4 C 2,6 C
01.03.2009 12:00 8,0 C 10,0 C 91 % 1007 hPa 0,0 l/m 12,8 km/h (3 Bft) S22.5 180 15 min 60,6 klux 0,00 min 6,6 C 3,8 C
01.03.2009 12:16 8,2 C 11,0 C 89 % 1007 hPa 0,0 l/m 14,8 km/h (3 Bft) S22.5 175 16 min 64,2 klux 0,00 min 6,5 C 3,0 C
01.03.2009 12:31 8,2 C 11,6 C 87 % 1007 hPa 0,0 l/m 17,7 km/h (3 Bft) S-SO22.5 160 15 min 51,2 klux 0,00 min 6,2 C 1,8 C
01.03.2009 12:46 8,2 C 12,8 C 88 % 1007 hPa 0,0 l/m 15,0 km/h (3 Bft) S22.5 170 15 min 63,6 klux 0,00 min 6,3 C 3,0 C
01.03.2009 13:01 8,5 C 13,0 C 86 % 1007 hPa 0,0 l/m 19,5 km/h (3 Bft) S22.5 175 15 min 66,1 klux 0,00 min 6,3 C 1,5 C
01.03.2009 13:16 9,4 C 14,4 C 85 % 1007 hPa 0,0 l/m 21,8 km/h (4 Bft) S-SW45 200 15 min 71,4 klux 0,00 min 7,0 C 1,9 C
01.03.2009 13:31 9,7 C 14,4 C 82 % 1007 hPa 0,0 l/m 20,4 km/h (4 Bft) S45 185 15 min 67,0 klux 0,00 min 6,8 C 2,8 C
01.03.2009 13:45 9,2 C 12,8 C 82 % 1007 hPa 0,0 l/m 22,2 km/h (4 Bft) S-SW45 205 14 min 33,5 klux 0,00 min 6,3 C 1,5 C
01.03.2009 14:00 9,2 C 11,8 C 83 % 1007 hPa 0,0 l/m 19,6 km/h (3 Bft) SW45 230 15 min 29,2 klux 0,00 min 6,5 C 2,4 C
01.03.2009 14:16 9,0 C 10,5 C 82 % 1007 hPa 0,0 l/m 27,6 km/h (4 Bft) W-SW22.5 245 0 min 24,1 klux 0,00 min 6,1 C -0,2 C
01.03.2009 14:31 8,8 C 10,2 C 83 % 1007 hPa 0,0 l/m 21,9 km/h (4 Bft) S45 190 0 min 25,9 klux 0,00 min 6,1 C 1,1 C
01.03.2009 14:46 9,0 C 9,8 C 83 % 1007 hPa 0,0 l/m 24,6 km/h (4 Bft) S-SW45 200 0 min 26,2 klux 0,00 min 6,3 C 0,6 C
01.03.2009 15:01 9,1 C 10,2 C 83 % 1007 hPa 0,0 l/m 21,4 km/h (4 Bft) SW22.5 230 15 min 29,4 klux 0,00 min 6,4 C 1,7 C
01.03.2009 15:16 9,2 C 10,4 C 82 % 1006 hPa 0,0 l/m 25,8 km/h (4 Bft) S-SW45 200 0 min 27,7 klux 0,00 min 6,3 C 0,5 C
01.03.2009 15:30 9,2 C 9,7 C 82 % 1007 hPa 0,0 l/m 23,9 km/h (4 Bft) S-SW45 210 0 min 19,0 klux 0,00 min 6,3 C 1,1 C
01.03.2009 15:45 8,8 C 9,5 C 82 % 1006 hPa 0,0 l/m 32,7 km/h (5 Bft) SW45 235 0 min 16,4 klux 0,00 min 5,9 C -1,6 C
01.03.2009 16:01 8,8 C 9,4 C 84 % 1006 hPa 0,0 l/m 23,5 km/h (4 Bft) SW45 230 0 min 14,7 klux 0,00 min 6,2 C 0,6 C
01.03.2009 16:16 8,8 C 9,1 C 84 % 1006 hPa 0,0 l/m 14,3 km/h (3 Bft) S-SW22.5 210 0 min 12,3 klux 0,00 min 6,2 C 4,0 C
01.03.2009 16:31 8,7 C 9,0 C 84 % 1007 hPa 0,0 l/m 16,3 km/h (3 Bft) SW22.5 230 0 min 10,0 klux 0,00 min 6,2 C 3,0 C
01.03.2009 16:46 8,4 C 8,8 C 84 % 1006 hPa 0,0 l/m 17,6 km/h (3 Bft) S-SW45 200 0 min 9,4 klux 0,00 min 5,9 C 2,1 C
01.03.2009 17:01 8,3 C 8,5 C 85 % 1006 hPa 0,0 l/m 19,6 km/h (3 Bft) S45 185 0 min 7,59 klux 0,00 min 5,9 C 1,2 C
01.03.2009 17:16 8,0 C 8,2 C 85 % 1007 hPa 0,0 l/m 15,1 km/h (3 Bft) SW22.5 220 0 min 5,41 klux 0,00 min 5,6 C 2,7 C
01.03.2009 17:30 7,8 C 8,0 C 86 % 1007 hPa 0,0 l/m 15,8 km/h (3 Bft) S-SW45 205 0 min 3,54 klux 0,00 min 5,6 C 2,1 C
01.03.2009 17:46 7,6 C 7,7 C 86 % 1007 hPa 0,0 l/m 19,1 km/h (3 Bft) S-SW45 205 0 min 2,65 klux 0,00 min 5,4 C 0,5 C
01.03.2009 18:01 7,4 C 7,3 C 87 % 1007 hPa 0,0 l/m 13,3 km/h (3 Bft) W-SW45 240 0 min 1,42 klux 0,00 min 5,4 C 2,8 C
01.03.2009 18:16 7,2 C 7,2 C 88 % 1007 hPa 0,0 l/m 16,6 km/h (3 Bft) SW22.5 215 0 min 494 lux 0,00 min 5,3 C 1,0 C
01.03.2009 18:31 7,0 C 7,0 C 89 % 1007 hPa 0,0 l/m 16,8 km/h (3 Bft) SW45 230 0 min 119 lux 0,00 min 5,3 C 0,7 C
01.03.2009 18:46 6,8 C 7,0 C 89 % 1007 hPa 0,0 l/m 12,5 km/h (3 Bft) SW 230 0 min 24 lux 0,00 min 5,1 C 2,5 C
01.03.2009 19:00 6,8 C 7,0 C 90 % 1007 hPa 0,0 l/m 14,8 km/h (3 Bft) SW22.5 235 0 min 1 lux 0,00 min 5,3 C 1,4 C
01.03.2009 19:15 6,8 C 6,8 C 90 % 1008 hPa 0,0 l/m 19,1 km/h (3 Bft) S-SW45 210 0 min 0 lux 0,00 min 5,3 C -0,5 C
01.03.2009 19:31 6,7 C 6,7 C 90 % 1008 hPa 0,0 l/m 14,3 km/h (3 Bft) SW45 215 0 min 0 lux 0,00 min 5,2 C 1,5 C
01.03.2009 19:46 6,6 C 6,8 C 91 % 1008 hPa 0,0 l/m 19,3 km/h (3 Bft) W-SW22.5 250 0 min 0 lux 0,00 min 5,2 C -0,8 C
01.03.2009 20:01 6,6 C 6,7 C 91 % 1008 hPa 0,0 l/m 19,2 km/h (3 Bft) W-SW22.5 250 0 min 0 lux 0,00 min 5,2 C -0,8 C
01.03.2009 20:16 6,6 C 6,8 C 91 % 1008 hPa 0,0 l/m 22,6 km/h (4 Bft) W-SW22.5 250 0 min 0 lux 0,00 min 5,2 C -2,0 C
01.03.2009 20:31 6,5 C 6,6 C 91 % 1008 hPa 0,0 l/m 19,3 km/h (3 Bft) W-SW22.5 250 0 min 0 lux 0,00 min 5,1 C -1,0 C
01.03.2009 20:46 6,4 C 6,5 C 92 % 1008 hPa 0,0 l/m 19,9 km/h (4 Bft) W-SW22.5 245 0 min 0 lux 0,00 min 5,2 C -1,3 C
01.03.2009 21:00 6,4 C 6,3 C 93 % 1008 hPa 0,0 l/m 17,0 km/h (3 Bft) W-SW22.5 250 0 min 0 lux 0,00 min 5,4 C -0,1 C
01.03.2009 21:15 6,3 C 6,2 C 93 % 1008 hPa 0,0 l/m 14,5 km/h (3 Bft) W-SW22.5 240 0 min 0 lux 0,00 min 5,3 C 0,9 C
01.03.2009 21:31 6,2 C 6,1 C 94 % 1008 hPa 0,0 l/m 14,3 km/h (3 Bft) W-SW22.5 245 0 min 0 lux 0,00 min 5,3 C 0,9 C
01.03.2009 21:46 6,2 C 6,0 C 95 % 1008 hPa 0,0 l/m 28,4 km/h (4 Bft) SW45 225 0 min 0 lux 0,00 min 5,5 C -4,3 C
01.03.2009 22:01 6,2 C 6,0 C 95 % 1008 hPa 0,0 l/m 16,3 km/h (3 Bft) SW45 215 0 min 0 lux 0,00 min 5,5 C -0,1 C
01.03.2009 22:16 6,1 C 6,0 C 95 % 1008 hPa 0,0 l/m 20,8 km/h (4 Bft) SW45 230 0 min 0 lux 0,00 min 5,4 C -2,0 C
01.03.2009 22:31 6,1 C 6,0 C 96 % 1008 hPa 0,3 l/m 24,0 km/h (4 Bft) SW22.5 235 0 min 0 lux 15,00 min 5,5 C -3,1 C
01.03.2009 22:45 6,0 C 5,9 C 96 % 1008 hPa 0,0 l/m 20,6 km/h (4 Bft) W-SW45 245 0 min 0 lux 0,00 min 5,4 C -2,1 C
01.03.2009 23:00 6,0 C 5,8 C 97 % 1008 hPa 0,3 l/m 22,5 km/h (4 Bft) W-SW45 240 0 min 0 lux 15,00 min 5,6 C -2,8 C
01.03.2009 23:10 6,0 C 5,8 C 97 % 1008 hPa 0,0 l/m 20,6 km/h (4 Bft) SW22.5 235 0 min 0 lux 0,00 min 5,6 C -2,1 C
01.03.2009 23:25 5,9 C 5,8 C 97 % 1008 hPa 0,3 l/m 22,2 km/h (4 Bft) W-SW22.5 245 0 min 0 lux 15,00 min 5,5 C -2,8 C
01.03.2009 23:40 5,9 C 5,7 C 97 % 1008 hPa 0,0 l/m 17,0 km/h (3 Bft) W-SW22.5 245 0 min 0 lux 0,00 min 5,5 C -0,8 C
01.03.2009 23:55 5,8 C 5,7 C 98 % 1008 hPa 0,0 l/m 17,2 km/h (3 Bft) W-SW22.5 245 0 min 0 lux 0,00 min 5,5 C -1,0 C
_ Min-Zeit 01:25 01:10 13:31 15:16 - 00:10 - - - - - 01:25 09:31
Minimum _ 1,0 C 0,0 C 82 % 1006 hPa - 0,0 km/h (0 Bft) - - - - - 0,4 C -4,3 C
_ Max-Zeit 13:31 13:16 02:40 00:10 22:31 15:45 - - 12:16 13:16 22:31 13:16 04:24
Maximum _ 9,7 C 14,4 C 99 % 1010 hPa 0,3 l/m 32,7 km/h
SW (5 Bft)
- - 16 min 71,4 klux 15,00 min 7,0 C 4,2 C
Durchschnitt _ 5,7 C 6,1 C 93 % 1008 hPa #0,9 l/m 12,5 km/h (3 Bft) SW - #3:14 h 10,5 klux #45 min. 4,7 C 1,2 C